Terminal Aerodrome Forecast
Issued by NWS Burlington, VT

Home | Current Version | Previous Version | Text Only | Print | Product List | Glossary On
Versions: 1 2 3 4 5 6 7 8 9 10 11 12 13 14 15 16 17 18 19 20
000
FTUS41 KBTV 212320
TAFBTV
TAF
KBTV 212320Z 2200/2224 34004KT P6SM OVC030
     FM220200 34003KT P6SM OVC020
      TEMPO 2205/2209 2SM BR OVC007
     FM221500 15006KT P6SM OVC025=

USA.gov is the U.S. government's official web portal to all federal, state and local government web resources and services.